University AP, Davis, CA, CA

8:46 AM PST on December 13, 2019 (GMT -0800)
University AP, Davis, CA

Weather History for KEDU - October, 2019

Change the Weather History Date:

Wednesday, October 16, 2019

  Actual Average (WUND) Record (WUND)
Temperature  
Mean Temperature 60 °F -  
Max Temperature 75 °F - - (-1)
Min Temperature 44 °F - - (-1)
Degree Days  
Heating Degree Days 6    
Growing Degree Days 10 (Base 50)    
Moisture  
Dew Point 41 °F    
Average Humidity 56    
Maximum Humidity 87    
Minimum Humidity 23    
Precipitation  
Precipitation 0.00 in - - ()
Sea Level Pressure  
Sea Level Pressure 29.93 in    
Wind  
Wind Speed 2 mph ()    
Max Wind Speed 10 mph    
Max Gust Speed -    
Visibility 10.0 miles    
Events      
Averages and records for this station are not official NWS values.
T = Trace of Precipitation, MM = Missing Value Source: Averaged Metar Reports

Daily Weather History Graph

Daily Weather History Graph

Search for Another Location

Airport or City:

Astronomy

Oct. 16, 2019 Rise Set
Actual Time 7:17 AM PDT 6:27 PM PDT
Civil Twilight 6:50 AM PDT 6:54 PM PDT
Nautical Twilight 6:19 AM PDT 7:25 PM PDT
Astronomical Twilight 5:48 AM PDT 7:55 PM PDT
Moon 8:26 PM PDT (10/16) 9:51 AM PDT (10/16)
Length of Visible Light 12h 04m
Length of Day
11h 10m
Waning Gibbous, 92% of the Moon is Illuminated
Oct 16
Waning Gibbous
Oct 21
Last Quarter
Oct 27
New
Nov 4
First Quarter
Nov 12
Full

Hourly Weather History & Observations

Time (PDT) Temp. Windchill Dew Point Humidity Pressure Visibility Wind Dir Wind Speed Gust Speed Precip Events Conditions
12:15 AM 50.0 °F - 39.2 °F 66% 30.01 in 10.0 mi North - - N/A   Clear
12:35 AM 50.0 °F - 39.2 °F 66% 30.00 in 10.0 mi Calm Calm - N/A   Clear
12:55 AM 50.0 °F - 37.4 °F 62% 30.00 in 10.0 mi Calm Calm - N/A   Clear
1:10 AM 48.2 °F - 37.4 °F 66% 30.00 in 10.0 mi Calm Calm - N/A   Clear
1:35 AM 46.4 °F - 37.4 °F 71% 30.01 in 10.0 mi Calm Calm - N/A   Clear
1:50 AM 46.4 °F - 37.4 °F 71% 30.01 in 10.0 mi Calm Calm - N/A   Clear
2:15 AM 46.4 °F - 37.4 °F 71% 30.00 in 10.0 mi Calm Calm - N/A   Clear
2:30 AM 46.4 °F - 37.4 °F 71% 30.00 in 10.0 mi Calm Calm - N/A   Clear
2:55 AM 44.6 °F - 39.2 °F 81% 30.00 in 10.0 mi Calm Calm - N/A   Clear
3:10 AM 46.4 °F - 39.2 °F 76% 30.00 in 10.0 mi Calm Calm - N/A   Clear
3:35 AM 46.4 °F - 41.0 °F 81% 30.00 in 10.0 mi Calm Calm - N/A   Clear
3:55 AM 46.4 °F - 39.2 °F 76% 29.99 in 10.0 mi Calm Calm - N/A   Clear
4:15 AM 46.4 °F - 41.0 °F 81% 29.99 in 10.0 mi Calm Calm - N/A   Clear
4:35 AM 44.6 °F - 41.0 °F 87% 29.99 in 10.0 mi Calm Calm - N/A   Clear
4:55 AM 44.6 °F - 39.2 °F 81% 29.99 in 10.0 mi Calm Calm - N/A   Clear
5:15 AM 44.6 °F - 37.4 °F 76% 29.98 in 10.0 mi Calm Calm - N/A   Clear
5:30 AM 44.6 °F - 37.4 °F 76% 29.99 in 10.0 mi Calm Calm - N/A   Clear
5:55 AM 44.6 °F - 37.4 °F 76% 29.99 in 10.0 mi Calm Calm - N/A   Clear
6:10 AM 44.6 °F 43.1 °F 37.4 °F 76% 29.99 in 10.0 mi West 3.5 mph - N/A   Clear
6:35 AM 44.6 °F - 37.4 °F 76% 29.99 in 10.0 mi Calm Calm - N/A   Clear
6:50 AM 44.6 °F - 37.4 °F 76% 29.99 in 10.0 mi Calm Calm - N/A   Clear
7:15 AM 44.6 °F - 37.4 °F 76% 29.99 in 10.0 mi Calm Calm - N/A   Clear
7:35 AM 44.6 °F - 37.4 °F 76% 29.99 in 10.0 mi Calm Calm - N/A   Clear
7:55 AM 44.6 °F - 37.4 °F 76% 29.99 in 10.0 mi Calm Calm - N/A   Clear
8:15 AM 46.4 °F - 37.4 °F 71% 30.00 in 10.0 mi Calm Calm - N/A   Clear
8:35 AM 48.2 °F - 37.4 °F 66% 30.01 in 10.0 mi Calm Calm - N/A   Clear
8:55 AM 51.8 °F - 37.4 °F 58% 30.01 in 10.0 mi NNE 3.5 mph - N/A   Clear
9:15 AM 53.6 °F - 39.2 °F 58% 30.01 in 10.0 mi NNE 3.5 mph - N/A   Clear
9:35 AM 55.4 °F - 39.2 °F 54% 30.01 in 10.0 mi WNW 3.5 mph - N/A   Clear
9:50 AM 57.2 °F - 39.2 °F 51% 30.01 in 10.0 mi WNW 3.5 mph - N/A   Clear
10:15 AM 57.2 °F - 39.2 °F 51% 30.01 in 10.0 mi NNW 3.5 mph - N/A   Clear
10:30 AM 59.0 °F - 39.2 °F 48% 30.01 in 10.0 mi Calm Calm - N/A   Clear
10:55 AM 62.6 °F - 41.0 °F 45% 30.00 in 10.0 mi North 3.5 mph - N/A   Clear
11:10 AM 62.6 °F - 39.2 °F 42% 30.00 in 10.0 mi Calm Calm - N/A   Clear
11:35 AM 64.4 °F - 39.2 °F 40% 29.99 in 10.0 mi Calm Calm - N/A   Clear
11:55 AM 66.2 °F - 39.2 °F 37% 29.99 in 10.0 mi Calm Calm - N/A   Clear
12:15 PM 68.0 °F - 39.2 °F 35% 29.98 in 10.0 mi SE 4.6 mph - N/A   Clear
12:35 PM 68.0 °F - 39.2 °F 35% 29.96 in 10.0 mi SE 4.6 mph - N/A   Clear
12:55 PM 69.8 °F - 39.2 °F 33% 29.95 in 10.0 mi SSE 4.6 mph - N/A   Clear
1:15 PM 69.8 °F - 39.2 °F 33% 29.94 in 10.0 mi SSW 3.5 mph - N/A   Clear
1:35 PM 71.6 °F - 41.0 °F 33% 29.94 in 10.0 mi South 6.9 mph - N/A   Clear
1:55 PM 71.6 °F - 44.6 °F 38% 29.92 in 10.0 mi SSE 4.6 mph - N/A   Clear
2:10 PM 73.4 °F - 41.0 °F 31% 29.92 in 10.0 mi South 4.6 mph - N/A   Clear
2:35 PM 73.4 °F - 44.6 °F 36% 29.90 in 10.0 mi South 8.1 mph - N/A   Clear
2:55 PM 75.2 °F - 41.0 °F 29% 29.89 in 10.0 mi South 6.9 mph - N/A   Clear
3:10 PM 73.4 °F - 41.0 °F 31% 29.88 in 10.0 mi South 5.8 mph - N/A   Clear
3:35 PM 73.4 °F - 39.2 °F 29% 29.88 in 10.0 mi South 9.2 mph - N/A   Clear
3:50 PM 73.4 °F - 39.2 °F 29% 29.88 in 10.0 mi South 8.1 mph - N/A   Clear
4:15 PM 73.4 °F - 33.8 °F 23% 29.87 in 10.0 mi South 6.9 mph - N/A   Clear
4:35 PM 73.4 °F - 35.6 °F 25% 29.86 in 10.0 mi SSE 5.8 mph - N/A   Clear
4:50 PM 73.4 °F - 39.2 °F 29% 29.85 in 10.0 mi South 6.9 mph - N/A   Clear
5:15 PM 71.6 °F - 41.0 °F 33% 29.85 in 10.0 mi South 6.9 mph - N/A   Clear
5:35 PM 69.8 °F - 44.6 °F 40% 29.84 in 10.0 mi SSW 10.4 mph - N/A   Clear
5:50 PM 68.0 °F - 48.2 °F 49% 29.83 in 10.0 mi South 9.2 mph - N/A   Clear
6:15 PM 66.2 °F - 46.4 °F 49% 29.83 in 10.0 mi SSW 6.9 mph - N/A   Clear
6:30 PM 66.2 °F - 46.4 °F 49% 29.82 in 10.0 mi SSW 8.1 mph - N/A   Clear
6:55 PM 64.4 °F - 44.6 °F 49% 29.83 in 10.0 mi SSW 6.9 mph - N/A   Clear
7:15 PM 64.4 °F - 44.6 °F 49% 29.84 in 10.0 mi SSW 8.1 mph - N/A   Clear
7:35 PM 64.4 °F - 44.6 °F 49% 29.83 in 10.0 mi SSW 5.8 mph - N/A   Clear
7:55 PM 64.4 °F - 46.4 °F 52% 29.83 in 10.0 mi SSW 9.2 mph - N/A   Clear
8:15 PM 62.6 °F - 46.4 °F 55% 29.84 in 10.0 mi SW 6.9 mph - N/A   Clear
8:35 PM 62.6 °F - 46.4 °F 55% 29.83 in 10.0 mi SSW 4.6 mph - N/A   Clear
8:55 PM 62.6 °F - 46.4 °F 55% 29.82 in 10.0 mi SSE 6.9 mph - N/A   Clear
9:15 PM 60.8 °F - 46.4 °F 59% 29.82 in 10.0 mi SSW 5.8 mph - N/A   Clear
9:35 PM 62.6 °F - 46.4 °F 55% 29.83 in 10.0 mi SW 6.9 mph - N/A   Clear
9:55 PM 62.6 °F - 46.4 °F 55% 29.82 in 10.0 mi SSW 9.2 mph - N/A   Clear
10:10 PM 62.6 °F - 46.4 °F 55% 29.83 in 10.0 mi SW 8.1 mph - N/A   Clear
10:35 PM 62.6 °F - 48.2 °F 59% 29.84 in 10.0 mi SSW 5.8 mph - N/A   Clear
10:50 PM 60.8 °F - 48.2 °F 63% 29.85 in 10.0 mi SSW 5.8 mph - N/A   Clear
11:15 PM 60.8 °F - 48.2 °F 63% 29.84 in 10.0 mi SSW 8.1 mph - N/A   Clear
11:55 PM 60.8 °F - 50.0 °F 68% 29.84 in 10.0 mi South 9.2 mph - N/A   Clear